Weather History for Laramie, WY

Change the Weather History Date:

Sunday, November 25, 2012

  Actual Average Record
Temperature  
Mean Temperature 40 °F 25 °F  
Max Temperature 53 °F 36 °F 61 °F (1990)
Min Temperature 26 °F 14 °F -26 °F (1993)
Degree Days  
Heating Degree Days 25 40  
Month to date heating degree days 670 864  
Since 1 July heating degree days 1735 2107  
Cooling Degree Days 0 0  
Month to date cooling degree days 0 0  
Year to date cooling degree days 211 67  
Moisture  
Dew Point 14 °F    
Average Humidity 38    
Maximum Humidity 59    
Minimum Humidity 17    
Precipitation  
Precipitation 0.00 in 0.02 in 0.77 in (1983)
Month to date precipitation 0.16 0.47  
Year to date precipitation 6.06 10.53  
Sea Level Pressure  
Sea Level Pressure 29.81 in    
Wind  
Wind Speed 19 mph (WSW)    
Max Wind Speed 44 mph    
Max Gust Speed 51 mph    
Visibility 10 miles    
Events      
T = Trace of Precipitation, MM = Missing Value Source: NWS Daily Summary

Daily Weather History Graph

Daily Weather History Graph

Search for Another Location

Airport:

Trip Planner

Search our weather history database for the weather conditions in past years. The results will help you decide how hot, cold, wet, or windy it might be!

Date:

Astronomy

Nov. 25, 2012 Rise Set
Actual Time 7:03 AM MST 4:36 PM MST
Civil Twilight 6:32 AM MST 5:06 PM MST
Nautical Twilight 5:58 AM MST 5:40 PM MST
Astronomical Twilight 5:25 AM MST 6:13 PM MST
Moon 2:55 PM MST (11/25) 4:18 AM MST (11/25)
Length of Visible Light 10h 33m
Length of Day
9h 33m
Waxing Gibbous, 93% of the Moon is Illuminated
Nov 25
Waxing Gibbous
Nov 28
Full
Dec 6
Last Quarter
Dec 13
New
Dec 19
First Quarter

Hourly Weather History & Observations

Time (MST) Temp. Windchill Dew Point Humidity Pressure Visibility Wind Dir Wind Speed Gust Speed Precip Events Conditions
12:53 AM 43.0 °F 34.5 °F 10.0 °F 26% 29.79 in 10.0 mi WSW 19.6 mph 29.9 mph N/A   Partly Cloudy
1:53 AM 35.1 °F 31.0 °F 12.0 °F 39% 29.83 in 10.0 mi Variable 4.6 mph - N/A   Mostly Cloudy
2:53 AM 39.0 °F 32.8 °F 12.9 °F 34% 29.79 in 10.0 mi SSW 9.2 mph - N/A   Clear
3:53 AM 37.9 °F 29.2 °F 10.9 °F 33% 29.79 in 10.0 mi SW 15.0 mph - N/A   Partly Cloudy
4:53 AM 36.0 °F 25.0 °F 12.0 °F 37% 29.82 in 10.0 mi SSW 20.7 mph 27.6 mph N/A   Clear
5:53 AM 28.9 °F 17.3 °F 10.9 °F 47% 29.86 in 10.0 mi South 16.1 mph - N/A   Clear
6:53 AM 32.0 °F 21.6 °F 10.9 °F 42% 29.86 in 10.0 mi SSW 15.0 mph - N/A   Clear
7:53 AM 37.0 °F 28.5 °F 10.9 °F 34% 29.81 in 10.0 mi SW 13.8 mph - N/A   Clear
8:53 AM 44.1 °F 35.4 °F 10.0 °F 25% 29.76 in 10.0 mi SW 21.9 mph 29.9 mph N/A   Clear
9:53 AM 46.0 °F 38.5 °F 9.0 °F 22% 29.74 in 10.0 mi SW 19.6 mph 28.8 mph N/A   Clear
10:53 AM 51.1 °F - 8.1 °F 18% 29.73 in 10.0 mi West 29.9 mph 35.7 mph N/A   Clear
11:53 AM 52.0 °F - 9.0 °F 18% 29.66 in 10.0 mi WSW 27.6 mph 34.5 mph N/A   Clear
12:53 PM 52.0 °F - 10.0 °F 19% 29.64 in 10.0 mi West 31.1 mph 42.6 mph N/A   Clear
1:53 PM 48.0 °F - 10.9 °F 22% 29.72 in 10.0 mi West 34.5 mph 44.9 mph N/A   Overcast
2:53 PM 42.1 °F 30.3 °F 18.0 °F 38% 29.78 in 10.0 mi WNW 36.8 mph 41.4 mph N/A   Overcast
3:53 PM 39.9 °F 30.5 °F 19.9 °F 45% 29.83 in 10.0 mi West 19.6 mph - N/A   Overcast
4:53 PM 37.9 °F 27.9 °F 21.0 °F 51% 29.85 in 10.0 mi WSW 19.6 mph 34.5 mph N/A   Scattered Clouds
5:53 PM 37.9 °F 30.5 °F 21.0 °F 51% 29.90 in 10.0 mi WSW 11.5 mph 23.0 mph N/A   Scattered Clouds
6:53 PM 39.0 °F 29.9 °F 21.9 °F 50% 29.88 in 10.0 mi WSW 17.3 mph 24.2 mph N/A   Overcast
7:53 PM 37.0 °F 26.7 °F 19.9 °F 50% 29.87 in 10.0 mi West 19.6 mph 26.5 mph N/A   Mostly Cloudy
8:53 PM 36.0 °F 27.1 °F 17.1 °F 46% 29.84 in 10.0 mi West 13.8 mph 29.9 mph N/A   Clear
9:53 PM 32.0 °F 21.6 °F 19.9 °F 61% 29.85 in 10.0 mi WSW 15.0 mph - N/A   Clear
10:53 PM 32.0 °F 21.6 °F 19.9 °F 61% 29.85 in 10.0 mi WSW 15.0 mph - N/A   Clear
11:53 PM 26.1 °F 16.2 °F 16.0 °F 66% 29.89 in 10.0 mi West 10.4 mph - N/A   Clear